| time (UTC) | temp F | wind direction | speed MPH | gust MPH | rain 1hr in | rain 24hr in | rain mn in | humidity % | barometer mb |
| 20260507003550 | 58 | 355 | 6.0 | 10.0 | 0.00 | 0.00 | 0.00 | 67 | 1010.3 |
| 20260507003046 | 58 | 5 | 4.0 | 9.0 | 0.00 | 0.00 | 0.00 | 68 | 1010.3 |
| 20260507002544 | 59 | 349 | 4.0 | 9.0 | 0.00 | 0.00 | 0.00 | 68 | 1010.4 |
| 20260507002142 | 59 | 355 | 6.0 | 9.0 | 0.00 | 0.00 | 0.00 | 68 | 1010.6 |
| 20260507001542 | 59 | 355 | 5.0 | 9.0 | 0.00 | 0.00 | 0.00 | 69 | 1010.6 |
| 20260507001038 | 59 | 344 | 3.0 | 6.0 | 0.00 | 0.00 | 0.00 | 69 | 1010.6 |
| 20260507000540 | 59 | 342 | 2.0 | 5.0 | 0.00 | 0.00 | 0.00 | 69 | 1010.7 |
| 20260507000040 | 59 | 344 | 2.0 | 5.0 | 0.00 | 0.00 | 0.00 | 70 | 1010.7 |
| 20260506235537 | 59 | 5 | 3.0 | 8.0 | 0.00 | 0.00 | 0.00 | 70 | 1010.7 |
| 20260506235036 | 59 | 23 | 5.0 | 8.0 | 0.00 | 0.00 | 0.00 | 70 | 1010.8 |
| 20260506234536 | 59 | 325 | 3.0 | 5.0 | 0.00 | 0.00 | 0.00 | 70 | 1010.9 |
| 20260506234035 | 59 | 344 | 3.0 | 5.0 | 0.00 | 0.00 | 0.00 | 70 | 1011.0 |
| 20260506233536 | 59 | 345 | 0.0 | 2.0 | 0.00 | 0.00 | 0.00 | 71 | 1011.1 |
| 20260506233036 | 59 | 344 | 0.0 | 4.0 | 0.00 | 0.00 | 0.00 | 71 | 1011.1 |
| 20260506232533 | 59 | 342 | 1.0 | 4.0 | 0.00 | 0.00 | 0.00 | 71 | 1011.1 |
| 20260506232033 | 59 | 347 | 1.0 | 4.0 | 0.00 | 0.00 | 0.00 | 71 | 1011.0 |
| 20260506231532 | 60 | 337 | 2.0 | 4.0 | 0.00 | 0.00 | 0.00 | 71 | 1011.0 |
| 20260506231033 | 60 | 347 | 2.0 | 5.0 | 0.00 | 0.00 | 0.00 | 71 | 1011.1 |
| 20260506230531 | 60 | 342 | 2.0 | 5.0 | 0.00 | 0.00 | 0.00 | 71 | 1011.0 |
| 20260506230032 | 60 | 351 | 3.0 | 5.0 | 0.00 | 0.00 | 0.00 | 72 | 1010.9 |
| 20260506225530 | 60 | 355 | 0.0 | 4.0 | 0.00 | 0.00 | 0.00 | 71 | 1011.0 |
| 20260506225031 | 60 | 333 | 1.0 | 4.0 | 0.00 | 0.00 | 0.00 | 71 | 1011.1 |
| 20260506224530 | 60 | 348 | 1.0 | 4.0 | 0.00 | 0.00 | 0.00 | 70 | 1011.1 |
| 20260506224028 | 60 | 351 | 1.0 | 4.0 | 0.00 | 0.00 | 0.00 | 72 | 1011.1 |
| 20260506223528 | 60 | 344 | 0.0 | 3.0 | 0.00 | 0.00 | 0.00 | 74 | 1011.2 |
| 20260506223027 | 60 | 344 | 0.0 | 2.0 | 0.00 | 0.00 | 0.00 | 72 | 1011.1 |
| 20260506222531 | 60 | 344 | 0.0 | 3.0 | 0.00 | 0.00 | 0.00 | 72 | 1011.1 |
| 20260506222027 | 61 | 344 | 0.0 | 3.0 | 0.00 | 0.00 | 0.00 | 74 | 1011.0 |
| 20260506221526 | 61 | 344 | 0.0 | 1.0 | 0.00 | 0.00 | 0.00 | 72 | 1011.1 |
| 20260506221024 | 60 | 344 | 0.0 | 5.0 | 0.00 | 0.00 | 0.00 | 71 | 1011.1 |
| 20260506220523 | 60 | 344 | 2.0 | 5.0 | 0.00 | 0.00 | 0.00 | 71 | 1011.0 |
| 20260506220023 | 61 | 350 | 2.0 | 4.0 | 0.00 | 0.00 | 0.00 | 71 | 1011.0 |
| 20260506215523 | 61 | 346 | 2.0 | 4.0 | 0.00 | 0.00 | 0.00 | 71 | 1011.0 |
| 20260506215022 | 61 | 338 | 1.0 | 3.0 | 0.00 | 0.00 | 0.00 | 72 | 1011.1 |
| 20260506214522 | 61 | 332 | 0.0 | 1.0 | 0.00 | 0.00 | 0.00 | 73 | 1011.1 |
| 20260506214022 | 61 | 332 | 0.0 | 2.0 | 0.00 | 0.00 | 0.00 | 73 | 1010.9 |
| 20260506213521 | 61 | 332 | 0.0 | 2.0 | 0.00 | 0.00 | 0.00 | 73 | 1011.0 |
| 20260506213021 | 61 | 331 | 0.0 | 0.0 | 0.00 | 0.00 | 0.00 | 74 | 1010.9 |
| 20260506212522 | 62 | 331 | 0.0 | 1.0 | 0.00 | 0.00 | 0.00 | 74 | 1011.0 |
| 20260506212022 | 62 | 331 | 0.0 | 1.0 | 0.00 | 0.00 | 0.00 | 75 | 1011.0 |
| 20260506211522 | 62 | 331 | 0.0 | 1.0 | 0.00 | 0.00 | 0.00 | 74 | 1011.0 |
| 20260506211020 | 62 | 331 | 0.0 | 2.0 | 0.00 | 0.00 | 0.00 | 75 | 1011.0 |
| 20260506210023 | 62 | 331 | 0.0 | 3.0 | 0.00 | 0.00 | 0.00 | 75 | 1010.9 |
| 20260506205519 | 62 | 331 | 0.0 | 3.0 | 0.00 | 0.00 | 0.00 | 75 | 1010.9 |
| 20260506205023 | 62 | 331 | 1.0 | 3.0 | 0.00 | 0.00 | 0.00 | 76 | 1010.9 |
| 20260506204520 | 62 | 63 | 1.0 | 3.0 | 0.00 | 0.00 | 0.00 | 76 | 1010.8 |
| 20260506204018 | 62 | 130 | 0.0 | 1.0 | 0.00 | 0.00 | 0.00 | 76 | 1010.9 |
| 20260506203518 | 62 | 130 | 0.0 | 0.0 | 0.00 | 0.00 | 0.00 | 77 | 1010.8 |
| 20260506203020 | 62 | 130 | 0.0 | 1.0 | 0.00 | 0.00 | 0.00 | 77 | 1010.7 |
| 20260506202516 | 62 | 130 | 0.0 | 1.0 | 0.00 | 0.00 | 0.00 | 76 | 1010.7 |
| 20260506202021 | 62 | 130 | 0.0 | 0.0 | 0.00 | 0.00 | 0.00 | 76 | 1010.6 |
| 20260506201516 | 62 | 130 | 0.0 | 0.0 | 0.00 | 0.00 | 0.00 | 76 | 1010.6 |
| 20260506201019 | 62 | 130 | 0.0 | 0.0 | 0.00 | 0.00 | 0.00 | 76 | 1010.4 |
| 20260506200522 | 62 | 130 | 0.0 | 0.0 | 0.00 | 0.00 | 0.00 | 76 | 1010.3 |
| 20260506200016 | 63 | 130 | 0.0 | 1.0 | 0.00 | 0.00 | 0.00 | 76 | 1010.3 |
| 20260506195516 | 63 | 130 | 0.0 | 2.0 | 0.00 | 0.00 | 0.00 | 76 | 1010.2 |
| 20260506195016 | 63 | 130 | 0.0 | 2.0 | 0.00 | 0.00 | 0.00 | 76 | 1010.0 |
| 20260506194516 | 63 | 130 | 0.0 | 2.0 | 0.00 | 0.00 | 0.00 | 76 | 1009.9 |
| 20260506194015 | 63 | 130 | 0.0 | 2.0 | 0.00 | 0.00 | 0.00 | 76 | 1009.7 |
| 20260506193515 | 63 | 130 | 0.0 | 2.0 | 0.00 | 0.00 | 0.00 | 76 | 1009.6 |
| 20260506193016 | 63 | 130 | 0.0 | 3.0 | 0.00 | 0.00 | 0.00 | 76 | 1009.7 |
| 20260506192514 | 63 | 129 | 0.0 | 3.0 | 0.00 | 0.00 | 0.00 | 75 | 1009.7 |
| 20260506192014 | 63 | 130 | 0.0 | 4.0 | 0.00 | 0.00 | 0.00 | 75 | 1009.7 |
| 20260506191514 | 63 | 130 | 1.0 | 4.0 | 0.00 | 0.00 | 0.00 | 74 | 1009.6 |
| 20260506191014 | 63 | 124 | 2.0 | 6.0 | 0.00 | 0.00 | 0.00 | 74 | 1009.7 |
| 20260506190512 | 64 | 125 | 2.0 | 6.0 | 0.00 | 0.00 | 0.00 | 73 | 1009.6 |
| 20260506190013 | 64 | 142 | 2.0 | 5.0 | 0.00 | 0.00 | 0.00 | 71 | 1009.5 |
| 20260506185511 | 64 | 132 | 2.0 | 5.0 | 0.00 | 0.00 | 0.00 | 69 | 1009.6 |
| 20260506185016 | 65 | 158 | 2.0 | 5.0 | 0.00 | 0.00 | 0.00 | 64 | 1009.4 |
| 20260506184512 | 65 | 150 | 2.0 | 5.0 | 0.00 | 0.00 | 0.00 | 63 | 1009.3 |
| 20260506184011 | 65 | 138 | 1.0 | 4.0 | 0.00 | 0.00 | 0.00 | 60 | 1009.2 |
| 20260506183511 | 65 | 138 | 1.0 | 4.0 | 0.00 | 0.00 | 0.00 | 59 | 1009.3 |
| 20260506183012 | 65 | 138 | 1.0 | 4.0 | 0.00 | 0.00 | 0.00 | 58 | 1009.1 |
| 20260506182509 | 65 | 138 | 0.0 | 3.0 | 0.00 | 0.00 | 0.00 | 57 | 1009.0 |
| 20260506182011 | 65 | 138 | 1.0 | 3.0 | 0.00 | 0.00 | 0.00 | 56 | 1009.0 |
| 20260506181510 | 65 | 126 | 1.0 | 3.0 | 0.00 | 0.00 | 0.00 | 56 | 1008.9 |
| 20260506181009 | 66 | 126 | 0.0 | 0.0 | 0.00 | 0.00 | 0.00 | 56 | 1009.1 |
| 20260506180509 | 66 | 126 | 0.0 | 0.0 | 0.00 | 0.00 | 0.00 | 54 | 1009.2 |
| 20260506180013 | 66 | 126 | 0.0 | 0.0 | 0.00 | 0.00 | 0.00 | 54 | 1009.2 |
| 20260506175507 | 66 | 126 | 0.0 | 1.0 | 0.00 | 0.00 | 0.00 | 53 | 1009.3 |
| 20260506175007 | 65 | 126 | 0.0 | 3.0 | 0.00 | 0.00 | 0.00 | 56 | 1009.4 |
| 20260506174507 | 65 | 126 | 1.0 | 3.0 | 0.00 | 0.00 | 0.00 | 58 | 1009.4 |
| 20260506174007 | 66 | 126 | 1.0 | 5.0 | 0.00 | 0.00 | 0.00 | 59 | 1009.7 |
| 20260506173507 | 66 | 126 | 2.0 | 5.0 | 0.00 | 0.00 | 0.00 | 59 | 1009.6 |
| 20260506173008 | 66 | 127 | 2.0 | 4.0 | 0.00 | 0.00 | 0.00 | 59 | 1009.7 |
| 20260506172507 | 66 | 128 | 1.0 | 5.0 | 0.00 | 0.00 | 0.00 | 58 | 1009.8 |
| 20260506172008 | 67 | 131 | 2.0 | 7.0 | 0.00 | 0.00 | 0.00 | 59 | 1009.8 |
| 20260506171512 | 67 | 147 | 3.0 | 7.0 | 0.00 | 0.00 | 0.00 | 59 | 1009.8 |
| 20260506171006 | 67 | 101 | 4.0 | 7.0 | 0.00 | 0.00 | 0.00 | 59 | 1009.8 |
| 20260506170505 | 68 | 109 | 4.0 | 7.0 | 0.00 | 0.00 | 0.00 | 60 | 1009.8 |
| 20260506170007 | 68 | 127 | 3.0 | 7.0 | 0.00 | 0.00 | 0.00 | 59 | 1009.7 |
| 20260506165505 | 68 | 140 | 1.0 | 7.0 | 0.00 | 0.00 | 0.00 | 57 | 1009.6 |
| 20260506165005 | 68 | 153 | 3.0 | 7.0 | 0.00 | 0.00 | 0.00 | 57 | 1009.4 |
| 20260506164505 | 69 | 142 | 2.0 | 4.0 | 0.00 | 0.00 | 0.00 | 56 | 1009.4 |
| 20260506164009 | 69 | 145 | 2.0 | 5.0 | 0.00 | 0.00 | 0.00 | 56 | 1009.5 |
| 20260506163507 | 69 | 150 | 2.0 | 5.0 | 0.00 | 0.00 | 0.00 | 56 | 1009.5 |
| 20260506163008 | 69 | 107 | 0.0 | 8.0 | 0.00 | 0.00 | 0.00 | 55 | 1009.5 |
| 20260506162504 | 69 | 115 | 0.0 | 6.0 | 0.00 | 0.00 | 0.00 | 55 | 1009.6 |
| 20260506162105 | 69 | 115 | 2.0 | 7.0 | 0.00 | 0.00 | 0.00 | 55 | 1009.5 |
| 20260506161504 | 68 | 132 | 2.0 | 8.0 | 0.00 | 0.00 | 0.00 | 56 | 1009.5 |
| 20260506161005 | 68 | 108 | 4.0 | 11.0 | 0.00 | 0.00 | 0.00 | 53 | 1009.7 |
| 20260506160503 | 68 | 115 | 6.0 | 11.0 | 0.00 | 0.00 | 0.00 | 52 | 1009.6 |
| 20260506160003 | 69 | 111 | 6.0 | 10.0 | 0.00 | 0.00 | 0.00 | 51 | 1009.5 |
| 20260506155503 | 69 | 98 | 5.0 | 10.0 | 0.00 | 0.00 | 0.00 | 49 | 1009.4 |
| 20260506155003 | 69 | 112 | 4.0 | 11.0 | 0.00 | 0.00 | 0.00 | 49 | 1009.4 |
| 20260506154503 | 69 | 105 | 3.0 | 11.0 | 0.00 | 0.00 | 0.00 | 50 | 1009.4 |
| 20260506154003 | 70 | 134 | 4.0 | 11.0 | 0.00 | 0.00 | 0.00 | 49 | 1009.4 |
| 20260506153503 | 70 | 112 | 6.0 | 11.0 | 0.00 | 0.00 | 0.00 | 50 | 1009.4 |
| 20260506153002 | 70 | 121 | 5.0 | 10.0 | 0.00 | 0.00 | 0.00 | 49 | 1009.5 |
| 20260506152502 | 70 | 187 | 5.0 | 12.0 | 0.00 | 0.00 | 0.00 | 50 | 1009.7 |
| 20260506152001 | 70 | 122 | 5.0 | 12.0 | 0.00 | 0.00 | 0.00 | 50 | 1009.6 |
| 20260506151601 | 70 | 94 | 6.0 | 11.0 | 0.00 | 0.00 | 0.00 | 49 | 1009.6 |
| 20260506151004 | 71 | 122 | 5.0 | 13.0 | 0.00 | 0.00 | 0.00 | 49 | 1009.7 |
| 20260506150502 | 71 | 105 | 3.0 | 13.0 | 0.00 | 0.00 | 0.00 | 49 | 1009.7 |
| 20260506150002 | 70 | 67 | 5.0 | 13.0 | 0.00 | 0.00 | 0.00 | 49 | 1009.8 |
| 20260506145501 | 70 | 128 | 6.0 | 13.0 | 0.00 | 0.00 | 0.00 | 49 | 1009.9 |
| 20260506145001 | 70 | 146 | 4.0 | 13.0 | 0.00 | 0.00 | 0.00 | 49 | 1009.9 |
| 20260506144501 | 70 | 96 | 5.0 | 11.0 | 0.00 | 0.00 | 0.00 | 49 | 1010.0 |
| 20260506144059 | 70 | 157 | 5.0 | 10.0 | 0.00 | 0.00 | 0.00 | 49 | 1009.9 |
| 20260506143559 | 70 | 138 | 3.0 | 10.0 | 0.00 | 0.00 | 0.00 | 49 | 1010.0 |
| 20260506143200 | 70 | 119 | 5.0 | 10.0 | 0.00 | 0.00 | 0.00 | 50 | 1010.1 |
| 20260506142600 | 70 | 90 | 4.0 | 11.0 | 0.00 | 0.00 | 0.00 | 50 | 1010.3 |
| 20260506142059 | 70 | 122 | 6.0 | 14.0 | 0.00 | 0.00 | 0.00 | 48 | 1010.3 |
| 20260506141604 | 70 | 118 | 5.0 | 16.0 | 0.00 | 0.00 | 0.00 | 48 | 1010.3 |
| 20260506141101 | 71 | 151 | 7.0 | 16.0 | 0.00 | 0.00 | 0.00 | 46 | 1010.6 |
| 20260506140602 | 71 | 139 | 6.0 | 12.0 | 0.00 | 0.00 | 0.00 | 46 | 1010.6 |
| 20260506140119 | 71 | 164 | 6.0 | 14.0 | 0.00 | 0.00 | 0.00 | 46 | 1010.5 |
| 20260506135602 | 71 | 138 | 4.0 | 14.0 | 0.00 | 0.00 | 0.00 | 46 | 1010.4 |
| 20260506135058 | 71 | 121 | 4.0 | 15.0 | 0.00 | 0.00 | 0.00 | 45 | 1010.4 |
| 20260506134559 | 72 | 119 | 6.0 | 12.0 | 0.00 | 0.00 | 0.00 | 45 | 1010.4 |
| 20260506134058 | 71 | 160 | 2.0 | 10.0 | 0.00 | 0.00 | 0.00 | 46 | 1010.3 |
| 20260506133557 | 71 | 142 | 5.0 | 10.0 | 0.00 | 0.00 | 0.00 | 46 | 1010.4 |
| 20260506133104 | 71 | 194 | 5.0 | 10.0 | 0.00 | 0.00 | 0.00 | 44 | 1010.3 |
| 20260506132557 | 71 | 92 | 4.0 | 11.0 | 0.00 | 0.00 | 0.00 | 44 | 1010.3 |
| 20260506132059 | 71 | 96 | 6.0 | 12.0 | 0.00 | 0.00 | 0.00 | 46 | 1010.2 |
| 20260506131557 | 71 | 115 | 5.0 | 12.0 | 0.00 | 0.00 | 0.00 | 44 | 1010.2 |
| 20260506131059 | 71 | 132 | 4.0 | 12.0 | 0.00 | 0.00 | 0.00 | 44 | 1010.1 |
| 20260506130558 | 71 | 90 | 7.0 | 12.0 | 0.00 | 0.00 | 0.00 | 43 | 1010.1 |
| 20260506130056 | 71 | 138 | 3.0 | 11.0 | 0.00 | 0.00 | 0.00 | 44 | 1010.1 |
| 20260506125555 | 71 | 138 | 6.0 | 11.0 | 0.00 | 0.00 | 0.00 | 44 | 1010.2 |
| 20260506125056 | 71 | 92 | 7.0 | 14.0 | 0.00 | 0.00 | 0.00 | 44 | 1010.2 |
| 20260506124557 | 72 | 132 | 6.0 | 14.0 | 0.00 | 0.00 | 0.00 | 44 | 1010.1 |
| 20260506124056 | 72 | 139 | 4.0 | 10.0 | 0.00 | 0.00 | 0.00 | 47 | 1010.1 |
| 20260506123559 | 72 | 128 | 6.0 | 10.0 | 0.00 | 0.00 | 0.00 | 46 | 1010.2 |
| 20260506123055 | 72 | 103 | 3.0 | 10.0 | 0.00 | 0.00 | 0.00 | 45 | 1010.2 |
| 20260506122558 | 72 | 105 | 6.0 | 10.0 | 0.00 | 0.00 | 0.00 | 44 | 1010.3 |
| 20260506122055 | 72 | 101 | 3.0 | 9.0 | 0.00 | 0.00 | 0.00 | 45 | 1010.4 |
| 20260506121555 | 72 | 115 | 5.0 | 10.0 | 0.00 | 0.00 | 0.00 | 46 | 1010.4 |
| 20260506121054 | 71 | 84 | 5.0 | 11.0 | 0.00 | 0.00 | 0.00 | 47 | 1010.5 |
| 20260506120554 | 71 | 123 | 6.0 | 13.0 | 0.00 | 0.00 | 0.00 | 48 | 1010.5 |
| 20260506120054 | 71 | 128 | 6.0 | 13.0 | 0.00 | 0.00 | 0.00 | 48 | 1010.5 |
| 20260506115553 | 72 | 111 | 6.0 | 9.0 | 0.00 | 0.00 | 0.00 | 49 | 1010.5 |
| 20260506115054 | 72 | 132 | 4.0 | 9.0 | 0.00 | 0.00 | 0.00 | 49 | 1010.5 |
| 20260506114558 | 72 | 103 | 1.0 | 9.0 | 0.00 | 0.00 | 0.00 | 49 | 1010.6 |
| 20260506114051 | 72 | 72 | 2.0 | 9.0 | 0.00 | 0.00 | 0.00 | 46 | 1010.6 |
| 20260506113551 | 72 | 132 | 4.0 | 10.0 | 0.00 | 0.00 | 0.00 | 47 | 1010.6 |
| 20260506113058 | 72 | 109 | 7.0 | 10.0 | 0.00 | 0.00 | 0.00 | 47 | 1010.7 |
| 20260506112552 | 72 | 113 | 5.0 | 10.0 | 0.00 | 0.00 | 0.00 | 47 | 1010.7 |
| 20260506112052 | 72 | 115 | 1.0 | 9.0 | 0.00 | 0.00 | 0.00 | 44 | 1010.6 |
| 20260506111552 | 72 | 112 | 5.0 | 13.0 | 0.00 | 0.00 | 0.00 | 43 | 1010.6 |
| 20260506111050 | 73 | 201 | 7.0 | 13.0 | 0.00 | 0.00 | 0.00 | 43 | 1010.5 |
| 20260506110549 | 73 | 124 | 6.0 | 12.0 | 0.00 | 0.00 | 0.00 | 43 | 1010.6 |
| 20260506110048 | 73 | 109 | 5.0 | 9.0 | 0.00 | 0.00 | 0.00 | 45 | 1010.5 |
| 20260506105548 | 73 | 121 | 4.0 | 10.0 | 0.00 | 0.00 | 0.00 | 47 | 1010.5 |
| 20260506105046 | 72 | 113 | 2.0 | 10.0 | 0.00 | 0.00 | 0.00 | 46 | 1010.6 |
| 20260506104554 | 72 | 108 | 5.0 | 9.0 | 0.00 | 0.00 | 0.00 | 47 | 1010.6 |
| 20260506104045 | 72 | 105 | 2.0 | 9.0 | 0.00 | 0.00 | 0.00 | 47 | 1010.7 |
| 20260506103544 | 71 | 105 | 4.0 | 9.0 | 0.00 | 0.00 | 0.00 | 47 | 1010.7 |
| 20260506103047 | 71 | 127 | 4.0 | 9.0 | 0.00 | 0.00 | 0.00 | 48 | 1010.8 |
| 20260506102544 | 72 | 113 | 3.0 | 9.0 | 0.00 | 0.00 | 0.00 | 49 | 1010.8 |
| 20260506102044 | 72 | 113 | 5.0 | 9.0 | 0.00 | 0.00 | 0.00 | 50 | 1010.9 |
| 20260506101549 | 71 | 85 | 3.0 | 9.0 | 0.00 | 0.00 | 0.00 | 48 | 1011.0 |
| 20260506101043 | 72 | 91 | 5.0 | 9.0 | 0.00 | 0.00 | 0.00 | 49 | 1011.1 |
| 20260506100542 | 72 | 133 | 4.0 | 8.0 | 0.00 | 0.00 | 0.00 | 52 | 1011.0 |
| 20260506100043 | 72 | 111 | 3.0 | 8.0 | 0.00 | 0.00 | 0.00 | 52 | 1011.1 |
| 20260506095541 | 72 | 178 | 3.0 | 9.0 | 0.00 | 0.00 | 0.00 | 50 | 1011.0 |
| 20260506095043 | 72 | 101 | 3.0 | 9.0 | 0.00 | 0.00 | 0.00 | 53 | 1011.1 |
| 20260506094537 | 72 | 115 | 3.0 | 9.0 | 0.00 | 0.00 | 0.00 | 53 | 1011.1 |
| 20260506094037 | 72 | 97 | 4.0 | 9.0 | 0.00 | 0.00 | 0.00 | 54 | 1011.1 |
| 20260506093539 | 71 | 119 | 2.0 | 9.0 | 0.00 | 0.00 | 0.00 | 56 | 1011.1 |
| 20260506093035 | 71 | 126 | 4.0 | 8.0 | 0.00 | 0.00 | 0.00 | 56 | 1011.1 |
| 20260506092533 | 71 | 128 | 4.0 | 9.0 | 0.00 | 0.00 | 0.00 | 55 | 1011.0 |
| 20260506092033 | 71 | 115 | 3.0 | 9.0 | 0.00 | 0.00 | 0.00 | 54 | 1011.0 |
| 20260506091531 | 71 | 67 | 0.0 | 9.0 | 0.00 | 0.00 | 0.00 | 55 | 1010.8 |
| 20260506091029 | 71 | 107 | 4.0 | 9.0 | 0.00 | 0.00 | 0.00 | 54 | 1010.9 |
| 20260506090531 | 71 | 74 | 2.0 | 7.0 | 0.00 | 0.00 | 0.00 | 54 | 1010.9 |
| 20260506090026 | 70 | 89 | 2.0 | 7.0 | 0.00 | 0.00 | 0.00 | 55 | 1010.8 |
| 20260506085524 | 70 | 81 | 3.0 | 8.0 | 0.00 | 0.00 | 0.00 | 56 | 1011.0 |
| 20260506085023 | 70 | 128 | 4.0 | 8.0 | 0.00 | 0.00 | 0.00 | 55 | 1010.9 |
| 20260506084532 | 69 | 66 | 3.0 | 10.0 | 0.00 | 0.00 | 0.00 | 56 | 1010.9 |
| 20260506084020 | 69 | 99 | 5.0 | 10.0 | 0.00 | 0.00 | 0.00 | 56 | 1011.1 |
| 20260506083524 | 69 | 121 | 7.0 | 10.0 | 0.00 | 0.00 | 0.00 | 57 | 1011.0 |
| 20260506083018 | 69 | 49 | 5.0 | 7.0 | 0.00 | 0.00 | 0.00 | 58 | 1010.8 |
| 20260506082517 | 70 | 44 | 3.0 | 6.0 | 0.00 | 0.00 | 0.00 | 57 | 1010.7 |
| 20260506082020 | 70 | 43 | 3.0 | 5.0 | 0.00 | 0.00 | 0.00 | 57 | 1010.7 |
| 20260506081517 | 69 | 42 | 2.0 | 6.0 | 0.00 | 0.00 | 0.00 | 58 | 1010.7 |
| 20260506081017 | 69 | 49 | 3.0 | 7.0 | 0.00 | 0.00 | 0.00 | 58 | 1010.7 |
| 20260506080512 | 69 | 47 | 4.0 | 7.0 | 0.00 | 0.00 | 0.00 | 58 | 1010.7 |
| 20260506073503 | 69 | 32 | 1.0 | 5.0 | 0.00 | 0.00 | 0.00 | 57 | 1010.3 |
| 20260506073002 | 69 | 32 | 0.0 | 3.0 | 0.00 | 0.00 | 0.00 | 57 | 1010.2 |
| 20260506072501 | 68 | 31 | 1.0 | 3.0 | 0.00 | 0.00 | 0.00 | 55 | 1010.2 |
| 20260506072101 | 68 | 32 | 1.0 | 4.0 | 0.00 | 0.00 | 0.00 | 53 | 1010.2 |
| 20260506071558 | 68 | 29 | 0.0 | 4.0 | 0.00 | 0.00 | 0.00 | 49 | 1010.1 |
| 20260506071057 | 68 | 29 | 1.0 | 3.0 | 0.00 | 0.00 | 0.00 | 47 | 1010.0 |
| 20260506070556 | 67 | 22 | 1.0 | 4.0 | 0.00 | 0.00 | 0.00 | 47 | 1010.0 |
| 20260506062042 | 60 | 327 | 2.0 | 6.0 | 0.00 | 0.00 | 0.00 | 62 | 1010.0 |
| 20260506061542 | 59 | 338 | 3.0 | 6.0 | 0.00 | 0.00 | 0.00 | 61 | 1010.1 |
| 20260506061043 | 59 | 342 | 1.0 | 2.0 | 0.00 | 0.00 | 0.00 | 68 | 1010.0 |
| 20260506060540 | 59 | 342 | 0.0 | 3.0 | 0.00 | 0.00 | 0.00 | 66 | 1010.1 |
| 20260506051033 | 61 | 24 | 0.0 | 1.0 | 0.00 | 0.00 | 0.00 | 67 | 1009.6 |
| 20260506050530 | 61 | 28 | 0.0 | 4.0 | 0.00 | 0.00 | 0.00 | 66 | 1009.5 |
| 20260506045025 | 62 | 31 | 0.0 | 4.0 | 0.00 | 0.00 | 0.00 | 61 | 1009.5 |
| 20260506044524 | 63 | 32 | 2.0 | 3.0 | 0.00 | 0.00 | 0.00 | 58 | 1009.5 |
| 20260506044021 | 63 | 30 | 1.0 | 4.0 | 0.00 | 0.00 | 0.00 | 48 | 1009.6 |
| 20260506043523 | 63 | 30 | 1.0 | 5.0 | 0.00 | 0.00 | 0.00 | 47 | 1009.6 |
| 20260506043020 | 63 | 30 | 1.0 | 5.0 | 0.00 | 0.00 | 0.00 | 45 | 1009.4 |
| 20260506042522 | 63 | 21 | 2.0 | 4.0 | 0.00 | 0.00 | 0.00 | 43 | 1009.4 |
| 20260506042021 | 64 | 22 | 2.0 | 9.0 | 0.00 | 0.00 | 0.00 | 44 | 1009.5 |
| 20260506041520 | 64 | 29 | 4.0 | 10.0 | 0.00 | 0.00 | 0.00 | 43 | 1009.4 |
| 20260506041019 | 63 | 14 | 5.0 | 10.0 | 0.00 | 0.00 | 0.00 | 43 | 1009.4 |
| 20260506040519 | 63 | 355 | 5.0 | 8.0 | 0.00 | 0.00 | 0.00 | 44 | 1009.4 |
| 20260506040033 | 63 | 345 | 5.0 | 8.0 | 0.00 | 0.00 | 0.00 | 44 | 1009.5 |
| 20260506035519 | 63 | 10 | 3.0 | 6.0 | 0.00 | 0.00 | 0.00 | 44 | 1009.5 |
| 20260506035017 | 63 | 27 | 2.0 | 8.0 | 0.00 | 0.00 | 0.00 | 45 | 1009.4 |
| 20260506034516 | 63 | 9 | 2.0 | 8.0 | 0.00 | 0.00 | 0.00 | 44 | 1009.5 |
| 20260506034014 | 64 | 11 | 3.0 | 6.0 | 0.00 | 0.00 | 0.00 | 44 | 1009.6 |
| 20260506033515 | 64 | 9 | 1.0 | 6.0 | 0.00 | 0.00 | 0.00 | 44 | 1009.6 |
| 20260506033015 | 64 | 19 | 2.0 | 6.0 | 0.00 | 0.00 | 0.00 | 44 | 1009.6 |
| 20260506032516 | 64 | 24 | 3.0 | 9.0 | 0.00 | 0.00 | 0.00 | 43 | 1009.6 |
| 20260506032014 | 64 | 15 | 4.0 | 10.0 | 0.00 | 0.00 | 0.00 | 44 | 1009.6 |
| 20260506031515 | 64 | 9 | 3.0 | 11.0 | 0.00 | 0.00 | 0.00 | 44 | 1009.6 |
| 20260506031016 | 64 | 20 | 5.0 | 9.0 | 0.00 | 0.00 | 0.00 | 43 | 1009.6 |
| 20260506030513 | 64 | 24 | 3.0 | 9.0 | 0.00 | 0.00 | 0.00 | 43 | 1009.6 |
| 20260506030015 | 64 | 28 | 4.0 | 9.0 | 0.00 | 0.00 | 0.00 | 43 | 1009.6 |
| 20260506025512 | 64 | 13 | 2.0 | 6.0 | 0.00 | 0.00 | 0.00 | 44 | 1009.7 |
| 20260506025013 | 64 | 12 | 3.0 | 6.0 | 0.00 | 0.00 | 0.00 | 43 | 1009.6 |
| 20260506024511 | 64 | 360 | 2.0 | 5.0 | 0.00 | 0.00 | 0.00 | 44 | 1009.6 |
| 20260506024011 | 64 | 9 | 2.0 | 5.0 | 0.00 | 0.00 | 0.00 | 44 | 1009.7 |
| 20260506023514 | 64 | 19 | 3.0 | 5.0 | 0.00 | 0.00 | 0.00 | 44 | 1009.6 |
| 20260506023010 | 64 | 17 | 3.0 | 8.0 | 0.00 | 0.00 | 0.00 | 44 | 1009.7 |
| 20260506022509 | 64 | 5 | 3.0 | 8.0 | 0.00 | 0.00 | 0.00 | 44 | 1009.7 |
| 20260506022012 | 64 | 9 | 4.0 | 7.0 | 0.00 | 0.00 | 0.00 | 44 | 1009.7 |
| 20260506021516 | 64 | 12 | 3.0 | 6.0 | 0.00 | 0.00 | 0.00 | 43 | 1009.8 |
| 20260506021008 | 65 | 18 | 3.0 | 6.0 | 0.00 | 0.00 | 0.00 | 43 | 1009.7 |
| 20260506020507 | 65 | 12 | 2.0 | 9.0 | 0.00 | 0.00 | 0.00 | 43 | 1009.8 |
| 20260506020006 | 65 | 355 | 3.0 | 9.0 | 0.00 | 0.00 | 0.00 | 43 | 1009.8 |
| 20260506015505 | 65 | 29 | 3.0 | 6.0 | 0.00 | 0.00 | 0.00 | 43 | 1009.9 |
| 20260506015009 | 65 | 77 | 4.0 | 7.0 | 0.00 | 0.00 | 0.00 | 43 | 1009.9 |
| 20260506014504 | 65 | 30 | 3.0 | 8.0 | 0.00 | 0.00 | 0.00 | 43 | 1010.0 |
| 20260506014003 | 65 | 13 | 3.0 | 8.0 | 0.00 | 0.00 | 0.00 | 43 | 1010.0 |
| 20260506013502 | 65 | 42 | 4.0 | 8.0 | 0.00 | 0.00 | 0.00 | 43 | 1010.0 |
| 20260506013002 | 65 | 11 | 4.0 | 7.0 | 0.00 | 0.00 | 0.00 | 43 | 1010.1 |
| 20260506012501 | 65 | 26 | 5.0 | 7.0 | 0.00 | 0.00 | 0.00 | 43 | 1010.1 |
| 20260506012100 | 66 | 15 | 3.0 | 10.0 | 0.00 | 0.00 | 0.00 | 43 | 1010.1 |
| 20260506011600 | 66 | 28 | 5.0 | 10.0 | 0.00 | 0.00 | 0.00 | 42 | 1010.2 |
| 20260506011100 | 66 | 32 | 3.0 | 10.0 | 0.00 | 0.00 | 0.00 | 42 | 1010.1 |
| 20260506010559 | 66 | 355 | 6.0 | 15.0 | 0.00 | 0.00 | 0.00 | 43 | 1010.2 |
| 20260506010117 | 66 | 344 | 5.0 | 15.0 | 0.00 | 0.00 | 0.00 | 42 | 1010.2 |
| 20260506005559 | 66 | 346 | 5.0 | 11.0 | 0.00 | 0.00 | 0.00 | 42 | 1010.1 |
| 20260506005058 | 66 | 84 | 3.0 | 6.0 | 0.00 | 0.00 | 0.00 | 42 | 1010.3 |
| 20260506004557 | 66 | 355 | 2.0 | 11.0 | 0.00 | 0.00 | 0.00 | 42 | 1010.3 |
| 20260506004055 | 66 | 360 | 5.0 | 11.0 | 0.00 | 0.00 | 0.00 | 42 | 1010.2 |